User: anonymous   Login
Location: Unspecified
(0.0000°N, 0.0000°E)
Time: 00:05:50
(UTC+00:00)
Language:

Akebono - Orbit

View from above orbital plane
View from above orbital plane
View from above satellite
View from above satellite

Ground track
Ground track

The orbit data is extracted from the following two-line orbital elements,

1 19822U 89016A   17172.82494930 +.00024571 +37898-6 +48723-3 0  9990
2 19822 075.0369 285.5844 1909681 177.2460 184.1180 11.68750340909793
Epoch (UTC): 21 June 2017 19:47:55
Eccentricity: 0.1909681
inclination: 75.0369°
perigee height: 257 km
apogee height: 3390 km
right ascension of ascending node: 285.5844°
argument of perigee: 177.2460°
revolutions per day: 11.68750340
mean anomaly at epoch: 184.1180°
orbit number at epoch: 90979

The dashed part of the orbit path shows where the satellite is in the earth's shadow,  

DLR